TimeCST,TemperatureF,Dew PointF,Humidity,Sea Level PressureIn,VisibilityMPH,Wind Direction,Wind SpeedMPH,Gust SpeedMPH,PrecipitationIn,Events,Conditions,WindDirDegrees,DateUTC
12:55 AM,35.6,34.3,95,30.21,10.0,Calm,Calm,-,N/A,,Clear,0,2012-11-09 06:55:00
1:55 AM,34.7,33.4,95,30.22,10.0,Calm,Calm,-,N/A,,Clear,0,2012-11-09 07:55:00
3:55 AM,33.4,32.4,96,30.25,10.0,Calm,Calm,-,N/A,,Clear,0,2012-11-09 09:55:00
4:14 AM,32.0,30.2,93,30.26,4.0,Calm,Calm,-,N/A,,Clear,0,2012-11-09 10:14:00
4:15 AM,32.0,30.2,93,30.26,2.5,Calm,Calm,-,N/A,,Clear,0,2012-11-09 10:15:00
4:16 AM,32.0,32.0,100,30.26,1.8,Calm,Calm,-,N/A,,Clear,0,2012-11-09 10:16:00
4:17 AM,32.0,32.0,100,30.26,1.2,Calm,Calm,-,N/A,,Clear,0,2012-11-09 10:17:00
4:18 AM,32.0,32.0,100,30.26,1.0,Calm,Calm,-,N/A,,Clear,0,2012-11-09 10:18:00
4:20 AM,33.8,32.0,93,30.26,0.8,Calm,Calm,-,N/A,,Clear,0,2012-11-09 10:20:00
4:22 AM,33.8,32.0,93,30.26,0.8,Calm,Calm,-,N/A,,Clear,0,2012-11-09 10:22:00
4:23 AM,33.8,32.0,93,30.26,0.8,Calm,Calm,-,N/A,,Clear,0,2012-11-09 10:23:00
4:27 AM,33.8,32.0,93,30.26,1.0,Calm,Calm,-,N/A,,Clear,0,2012-11-09 10:27:00
4:33 AM,33.8,32.0,93,30.26,0.8,Calm,Calm,-,N/A,,Clear,0,2012-11-09 10:33:00
4:34 AM,33.8,32.0,93,30.26,0.5,Calm,Calm,-,N/A,Fog,Fog,0,2012-11-09 10:34:00
4:36 AM,33.8,32.0,93,30.27,0.5,Calm,Calm,-,N/A,Fog,Fog,0,2012-11-09 10:36:00
4:38 AM,33.8,32.0,93,30.27,0.2,Calm,Calm,-,N/A,Fog,Fog,0,2012-11-09 10:38:00
4:40 AM,32.0,32.0,100,30.27,0.2,Calm,Calm,-,N/A,Fog,Fog,0,2012-11-09 10:40:00
4:45 AM,32.0,32.0,100,30.27,0.2,Calm,Calm,-,N/A,Fog,Fog,0,2012-11-09 10:45:00
4:46 AM,32.0,32.0,100,30.27,0.2,Calm,Calm,-,N/A,Fog,Fog,0,2012-11-09 10:46:00
4:47 AM,33.8,32.0,93,30.27,0.5,Calm,Calm,-,N/A,Fog,Fog,0,2012-11-09 10:47:00
4:50 AM,33.8,32.0,93,30.27,0.8,Calm,Calm,-,N/A,,Mist,0,2012-11-09 10:50:00
4:51 AM,33.8,32.0,93,30.27,1.0,Calm,Calm,-,N/A,,Mist,0,2012-11-09 10:51:00
4:52 AM,33.8,32.0,93,30.27,1.5,Calm,Calm,-,N/A,,Partly Cloudy,0,2012-11-09 10:52:00
4:53 AM,33.8,32.0,93,30.27,2.0,Calm,Calm,-,N/A,,Partly Cloudy,0,2012-11-09 10:53:00
4:54 AM,33.8,32.0,93,30.27,4.0,Calm,Calm,-,N/A,,Partly Cloudy,0,2012-11-09 10:54:00
4:55 AM,33.3,32.4,96,30.27,6.0,Calm,Calm,-,N/A,,Partly Cloudy,0,2012-11-09 10:55:00
5:40 AM,32.0,32.0,100,30.27,4.0,Calm,Calm,-,N/A,,Clear,0,2012-11-09 11:40:00
5:41 AM,32.0,32.0,100,30.27,2.5,Calm,Calm,-,N/A,,Clear,0,2012-11-09 11:41:00
5:42 AM,32.0,32.0,100,30.27,1.8,Calm,Calm,-,N/A,,Clear,0,2012-11-09 11:42:00
5:43 AM,32.0,32.0,100,30.27,1.5,Calm,Calm,-,N/A,,Clear,0,2012-11-09 11:43:00
5:50 AM,33.8,32.0,93,30.27,1.8,Calm,Calm,-,N/A,,Clear,0,2012-11-09 11:50:00
5:51 AM,33.8,32.0,93,30.27,2.5,Calm,Calm,-,N/A,,Clear,0,2012-11-09 11:51:00
5:52 AM,33.8,32.0,93,30.27,4.0,Calm,Calm,-,N/A,,Clear,0,2012-11-09 11:52:00
5:53 AM,33.8,32.0,93,30.27,6.0,Calm,Calm,-,N/A,,Clear,0,2012-11-09 11:53:00
5:55 AM,33.3,32.4,96,30.28,9.0,Calm,Calm,-,N/A,,Clear,0,2012-11-09 11:55:00
6:55 AM,33.4,32.2,95,30.29,10.0,SE,3.5,-,N/A,,Clear,130,2012-11-09 12:55:00
7:55 AM,41.5,38.5,89,30.30,10.0,SE,4.6,-,N/A,,Clear,140,2012-11-09 13:55:00
8:55 AM,50.5,40.8,69,30.31,10.0,Calm,Calm,-,N/A,,Clear,0,2012-11-09 14:55:00
9:55 AM,58.5,40.5,51,30.32,10.0,South,5.8,-,N/A,,Clear,180,2012-11-09 15:55:00
10:55 AM,62.4,40.3,44,30.31,10.0,SSW,5.8,-,N/A,,Clear,210,2012-11-09 16:55:00
11:55 AM,64.2,41.0,43,30.27,10.0,South,5.8,-,N/A,,Clear,190,2012-11-09 17:55:00
12:55 PM,65.7,38.8,37,30.23,10.0,SE,4.6,-,N/A,,Clear,140,2012-11-09 18:55:00
1:55 PM,67.6,37.9,34,30.21,10.0,South,4.6,-,N/A,,Clear,170,2012-11-09 19:55:00
2:55 PM,68.0,37.9,33,30.20,10.0,South,5.8,-,N/A,,Clear,170,2012-11-09 20:55:00
3:55 PM,68.2,38.7,34,30.19,10.0,South,5.8,-,N/A,,Clear,180,2012-11-09 21:55:00
4:55 PM,58.5,41.0,52,30.19,10.0,South,4.6,-,N/A,,Clear,170,2012-11-09 22:55:00
5:55 PM,52.3,42.4,69,30.20,10.0,SSE,4.6,-,N/A,,Clear,150,2012-11-09 23:55:00
6:55 PM,46.4,41.0,81,30.21,10.0,SSE,4.6,-,N/A,,Clear,150,2012-11-10 00:55:00
7:55 PM,48.7,40.6,74,30.21,10.0,SSE,6.9,-,N/A,,Clear,150,2012-11-10 01:55:00
8:55 PM,44.2,39.4,83,30.23,10.0,SSE,4.6,-,N/A,,Clear,150,2012-11-10 02:55:00
9:55 PM,43.3,40.5,90,30.23,10.0,Calm,Calm,-,N/A,,Clear,0,2012-11-10 03:55:00
10:55 PM,42.8,39.6,88,30.23,10.0,Calm,Calm,-,N/A,,Clear,0,2012-11-10 04:55:00
11:55 PM,40.5,37.8,90,30.22,10.0,Calm,Calm,-,N/A,,Clear,0,2012-11-10 05:55:00